owner,sensor,date,latitude,longitude,vertical_datum,wind_speed,wind_to_direction,wind_speed_of_gust,qcFlag 
DISL,ioos:station:DISL:MHPA:1,2009-08-01T00:00:00Z,30.6671,-87.9365,8.5,1.45,200.5,-9999.0,'1111122,1111122,1111122' 
DISL,ioos:station:DISL:MHPA:1,2009-08-01T00:30:00Z,30.6671,-87.9365,8.5,2.08,146.1,-9999.0,'1111122,1111122,1111122' 
DISL,ioos:station:DISL:MHPA:1,2009-08-01T01:00:00Z,30.6671,-87.9365,8.5,2.29,122.4,-9999.0,'1111122,1111122,1111122' 
DISL,ioos:station:DISL:MHPA:1,2009-08-01T01:30:00Z,30.6671,-87.9365,8.5,1.86,126.9,-9999.0,'1111122,1111122,1111122' 
DISL,ioos:station:DISL:MHPA:1,2009-08-01T02:00:00Z,30.6671,-87.9365,8.5,2.38,129.7,-9999.0,'1111122,1111122,1111122' 
DISL,ioos:station:DISL:MHPA:1,2009-08-01T02:30:00Z,30.6671,-87.9365,8.5,2.24,121.4,-9999.0,'1111122,1111122,1111122' 
DISL,ioos:station:DISL:MHPA:1,2009-08-01T03:00:00Z,30.6671,-87.9365,8.5,1.64,108.3,-9999.0,'1111122,1111122,1111122' 
DISL,ioos:station:DISL:MHPA:1,2009-08-01T03:30:00Z,30.6671,-87.9365,8.5,1.45,106.5,-9999.0,'1111122,1111122,1111122' 
DISL,ioos:station:DISL:MHPA:1,2009-08-01T04:00:00Z,30.6671,-87.9365,8.5,0.55,124.7,-9999.0,'1111122,1111122,1111122' 
DISL,ioos:station:DISL:MHPA:1,2009-08-01T04:30:00Z,30.6671,-87.9365,8.5,1.14,112.2,-9999.0,'1111122,1111122,1111122' 
DISL,ioos:station:DISL:MHPA:1,2009-08-01T05:00:00Z,30.6671,-87.9365,8.5,1.82,12.12,-9999.0,'1111122,1111122,1111122' 
DISL,ioos:station:DISL:MHPA:1,2009-08-01T05:30:00Z,30.6671,-87.9365,8.5,0.96,18.73,-9999.0,'1111122,1111122,1111122' 
DISL,ioos:station:DISL:MHPA:1,2009-08-01T06:00:00Z,30.6671,-87.9365,8.5,1.28,133.6,-9999.0,'1111122,1111122,1111122' 
DISL,ioos:station:DISL:MHPA:1,2009-08-01T06:30:00Z,30.6671,-87.9365,8.5,0.76,108.6,-9999.0,'1111122,1111122,1111122' 
DISL,ioos:station:DISL:MHPA:1,2009-08-01T07:00:00Z,30.6671,-87.9365,8.5,0.99,36.57,-9999.0,'1111122,1111122,1111122' 
DISL,ioos:station:DISL:MHPA:1,2009-08-01T07:30:00Z,30.6671,-87.9365,8.5,0.43,35.95,-9999.0,'1111122,1111122,1111122' 
DISL,ioos:station:DISL:MHPA:1,2009-08-01T08:00:00Z,30.6671,-87.9365,8.5,1.72,112.7,-9999.0,'1111122,1111122,1111122' 
DISL,ioos:station:DISL:MHPA:1,2009-08-01T08:30:00Z,30.6671,-87.9365,8.5,1.42,96.2,-9999.0,'1111122,1111122,1111122' 
DISL,ioos:station:DISL:MHPA:1,2009-08-01T09:00:00Z,30.6671,-87.9365,8.5,1.87,92.5,-9999.0,'1111122,1111122,1111122' 
DISL,ioos:station:DISL:MHPA:1,2009-08-01T09:30:00Z,30.6671,-87.9365,8.5,1.38,104.5,-9999.0,'1111122,1111122,1111122' 
DISL,ioos:station:DISL:MHPA:1,2009-08-01T10:00:00Z,30.6671,-87.9365,8.5,0.82,99.6,-9999.0,'1111122,1111122,1111122' 
DISL,ioos:station:DISL:MHPA:1,2009-08-01T10:30:00Z,30.6671,-87.9365,8.5,1.54,96.2,-9999.0,'1111122,1111122,1111122' 
DISL,ioos:station:DISL:MHPA:1,2009-08-01T11:00:00Z,30.6671,-87.9365,8.5,1.22,106.7,-9999.0,'1111122,1111122,1111122' 
DISL,ioos:station:DISL:MHPA:1,2009-08-01T11:30:00Z,30.6671,-87.9365,8.5,0.54,87.2,-9999.0,'1111122,1111122,1111122' 
DISL,ioos:station:DISL:MHPA:1,2009-08-01T12:00:00Z,30.6671,-87.9365,8.5,0.46,61.4,-9999.0,'1111122,1111122,1111122' 
DISL,ioos:station:DISL:MHPA:1,2009-08-01T12:30:00Z,30.6671,-87.9365,8.5,0.28,84.0,-9999.0,'1111122,1111122,1111122' 
DISL,ioos:station:DISL:MHPA:1,2009-08-01T13:00:00Z,30.6671,-87.9365,8.5,0.0,125.8,-9999.0,'1114422,1111122,1111122' 
DISL,ioos:station:DISL:MHPA:1,2009-08-01T13:30:00Z,30.6671,-87.9365,8.5,0.38,282.9,-9999.0,'1111122,1111122,1111122' 
DISL,ioos:station:DISL:MHPA:1,2009-08-01T14:00:00Z,30.6671,-87.9365,8.5,1.99,275.3,-9999.0,'1111122,1111122,1111122' 
DISL,ioos:station:DISL:MHPA:1,2009-08-01T14:30:00Z,30.6671,-87.9365,8.5,1.04,266.3,-9999.0,'1111122,1111122,1111122' 
DISL,ioos:station:DISL:MHPA:1,2009-08-01T15:00:00Z,30.6671,-87.9365,8.5,7.81,178.6,-9999.0,'1111122,1111122,1111122' 
DISL,ioos:station:DISL:MHPA:1,2009-08-01T15:30:00Z,30.6671,-87.9365,8.5,8.06,242.5,-9999.0,'1111122,1111122,1111122' 
DISL,ioos:station:DISL:MHPA:1,2009-08-01T16:00:00Z,30.6671,-87.9365,8.5,4.42,310.4,-9999.0,'1111122,1111122,1111122' 
DISL,ioos:station:DISL:MHPA:1,2009-08-01T16:30:00Z,30.6671,-87.9365,8.5,1.58,60.11,-9999.0,'1111122,1111122,1111122' 
DISL,ioos:station:DISL:MHPA:1,2009-08-01T17:00:00Z,30.6671,-87.9365,8.5,1.25,80.2,-9999.0,'1111122,1111122,1111122' 
DISL,ioos:station:DISL:MHPA:1,2009-08-01T17:30:00Z,30.6671,-87.9365,8.5,0.54,116.5,-9999.0,'1111122,1111122,1111122' 
DISL,ioos:station:DISL:MHPA:1,2009-08-01T18:00:00Z,30.6671,-87.9365,8.5,1.45,90.6,-9999.0,'1111122,1111122,1111122' 
DISL,ioos:station:DISL:MHPA:1,2009-08-01T18:30:00Z,30.6671,-87.9365,8.5,1.95,190.5,-9999.0,'1111122,1111122,1111122' 
DISL,ioos:station:DISL:MHPA:1,2009-08-01T19:00:00Z,30.6671,-87.9365,8.5,2.82,219.1,-9999.0,'1111122,1111122,1111122' 
DISL,ioos:station:DISL:MHPA:1,2009-08-01T19:30:00Z,30.6671,-87.9365,8.5,6.04,255.2,-9999.0,'1111122,1111122,1111122' 
DISL,ioos:station:DISL:MHPA:1,2009-08-01T20:00:00Z,30.6671,-87.9365,8.5,2.91,252.6,-9999.0,'1111122,1111122,1111122' 
DISL,ioos:station:DISL:MHPA:1,2009-08-01T20:30:00Z,30.6671,-87.9365,8.5,2.83,216.6,-9999.0,'1111122,1111122,1111122' 
DISL,ioos:station:DISL:MHPA:1,2009-08-01T21:00:00Z,30.6671,-87.9365,8.5,5.09,253.0,-9999.0,'1111122,1111122,1111122' 
DISL,ioos:station:DISL:MHPA:1,2009-08-01T21:30:00Z,30.6671,-87.9365,8.5,2.68,211.1,-9999.0,'1111122,1111122,1111122' 
DISL,ioos:station:DISL:MHPA:1,2009-08-01T22:00:00Z,30.6671,-87.9365,8.5,1.93,205.4,-9999.0,'1111122,1111122,1111122' 
DISL,ioos:station:DISL:MHPA:1,2009-08-01T22:30:00Z,30.6671,-87.9365,8.5,1.98,227.2,-9999.0,'1111122,1111122,1111122' 
DISL,ioos:station:DISL:MHPA:1,2009-08-01T23:00:00Z,30.6671,-87.9365,8.5,1.5,211.1,-9999.0,'1111122,1111122,1111122' 
DISL,ioos:station:DISL:MHPA:1,2009-08-01T23:30:00Z,30.6671,-87.9365,8.5,2.53,265.9,-9999.0,'1111122,1111122,1111122' 
DISL,ioos:station:DISL:MHPA:1,2009-08-02T00:00:00Z,30.6671,-87.9365,8.5,2.46,231.8,-9999.0,'1111122,1111122,1111122' 
DISL,ioos:station:DISL:MHPA:1,2009-08-02T00:30:00Z,30.6671,-87.9365,8.5,1.62,241.9,-9999.0,'1111122,1111122,1111122' 
DISL,ioos:station:DISL:MHPA:1,2009-08-02T01:00:00Z,30.6671,-87.9365,8.5,0.68,0.819,-9999.0,'1111122,1111122,1111122' 
DISL,ioos:station:DISL:MHPA:1,2009-08-02T01:30:00Z,30.6671,-87.9365,8.5,0.0,0.0,-9999.0,'1114422,1114422,1111122' 
DISL,ioos:station:DISL:MHPA:1,2009-08-02T02:00:00Z,30.6671,-87.9365,8.5,0.67,289.6,-9999.0,'1111122,1111122,1111122' 
DISL,ioos:station:DISL:MHPA:1,2009-08-02T02:30:00Z,30.6671,-87.9365,8.5,1.92,243.5,-9999.0,'1111122,1111122,1111122' 
DISL,ioos:station:DISL:MHPA:1,2009-08-02T03:00:00Z,30.6671,-87.9365,8.5,1.27,6.964,-9999.0,'1111122,1111122,1111122' 
DISL,ioos:station:DISL:MHPA:1,2009-08-02T03:30:00Z,30.6671,-87.9365,8.5,0.77,58.57,-9999.0,'1111122,1111122,1111122' 
DISL,ioos:station:DISL:MHPA:1,2009-08-02T04:00:00Z,30.6671,-87.9365,8.5,1.32,104.5,-9999.0,'1111122,1111122,1111122' 
DISL,ioos:station:DISL:MHPA:1,2009-08-02T04:30:00Z,30.6671,-87.9365,8.5,1.14,104.7,-9999.0,'1111122,1111122,1111122' 
DISL,ioos:station:DISL:MHPA:1,2009-08-02T05:00:00Z,30.6671,-87.9365,8.5,1.84,123.6,-9999.0,'1111122,1111122,1111122' 
DISL,ioos:station:DISL:MHPA:1,2009-08-02T05:30:00Z,30.6671,-87.9365,8.5,2.42,116.2,-9999.0,'1111122,1111122,1111122' 
DISL,ioos:station:DISL:MHPA:1,2009-08-02T06:00:00Z,30.6671,-87.9365,8.5,1.77,133.3,-9999.0,'1111122,1111122,1111122' 
DISL,ioos:station:DISL:MHPA:1,2009-08-02T06:30:00Z,30.6671,-87.9365,8.5,2.64,153.0,-9999.0,'1111122,1111122,1111122' 
DISL,ioos:station:DISL:MHPA:1,2009-08-02T07:00:00Z,30.6671,-87.9365,8.5,4.25,237.1,-9999.0,'1111122,1111122,1111122' 
DISL,ioos:station:DISL:MHPA:1,2009-08-02T07:30:00Z,30.6671,-87.9365,8.5,2.83,213.2,-9999.0,'1111122,1111122,1111122' 
DISL,ioos:station:DISL:MHPA:1,2009-08-02T08:00:00Z,30.6671,-87.9365,8.5,3.64,218.0,-9999.0,'1111122,1111122,1111122' 
DISL,ioos:station:DISL:MHPA:1,2009-08-02T08:30:00Z,30.6671,-87.9365,8.5,4.03,238.2,-9999.0,'1111122,1111122,1111122' 
DISL,ioos:station:DISL:MHPA:1,2009-08-02T09:00:00Z,30.6671,-87.9365,8.5,4.78,257.3,-9999.0,'1111122,1111122,1111122' 
DISL,ioos:station:DISL:MHPA:1,2009-08-02T09:30:00Z,30.6671,-87.9365,8.5,5.51,263.5,-9999.0,'1111122,1111122,1111122' 
DISL,ioos:station:DISL:MHPA:1,2009-08-02T10:00:00Z,30.6671,-87.9365,8.5,3.84,272.5,-9999.0,'1111122,1111122,1111122' 
DISL,ioos:station:DISL:MHPA:1,2009-08-02T10:30:00Z,30.6671,-87.9365,8.5,3.52,280.6,-9999.0,'1111122,1111122,1111122' 
DISL,ioos:station:DISL:MHPA:1,2009-08-02T11:00:00Z,30.6671,-87.9365,8.5,3.62,271.9,-9999.0,'1111122,1111122,1111122' 
DISL,ioos:station:DISL:MHPA:1,2009-08-02T11:30:00Z,30.6671,-87.9365,8.5,3.67,279.7,-9999.0,'1111122,1111122,1111122' 
DISL,ioos:station:DISL:MHPA:1,2009-08-02T12:00:00Z,30.6671,-87.9365,8.5,3.25,269.3,-9999.0,'1111122,1111122,1111122' 
DISL,ioos:station:DISL:MHPA:1,2009-08-02T12:30:00Z,30.6671,-87.9365,8.5,2.97,267.9,-9999.0,'1111122,1111122,1111122' 
DISL,ioos:station:DISL:MHPA:1,2009-08-02T13:00:00Z,30.6671,-87.9365,8.5,2.41,270.1,-9999.0,'1111122,1111122,1111122' 
DISL,ioos:station:DISL:MHPA:1,2009-08-02T13:30:00Z,30.6671,-87.9365,8.5,2.46,254.2,-9999.0,'1111122,1111122,1111122' 
DISL,ioos:station:DISL:MHPA:1,2009-08-02T14:00:00Z,30.6671,-87.9365,8.5,2.81,245.5,-9999.0,'1111122,1111122,1111122' 
DISL,ioos:station:DISL:MHPA:1,2009-08-02T14:30:00Z,30.6671,-87.9365,8.5,2.01,229.1,-9999.0,'1111122,1111122,1111122' 
DISL,ioos:station:DISL:MHPA:1,2009-08-02T15:00:00Z,30.6671,-87.9365,8.5,1.86,223.1,-9999.0,'1111122,1111122,1111122' 
DISL,ioos:station:DISL:MHPA:1,2009-08-02T15:30:00Z,30.6671,-87.9365,8.5,3.51,258.3,-9999.0,'1111122,1111122,1111122' 
DISL,ioos:station:DISL:MHPA:1,2009-08-02T16:00:00Z,30.6671,-87.9365,8.5,3.88,279.8,-9999.0,'1111122,1111122,1111122' 
DISL,ioos:station:DISL:MHPA:1,2009-08-02T16:30:00Z,30.6671,-87.9365,8.5,4.13,265.3,-9999.0,'1111122,1111122,1111122' 
DISL,ioos:station:DISL:MHPA:1,2009-08-02T17:00:00Z,30.6671,-87.9365,8.5,3.24,285.4,-9999.0,'1111122,1111122,1111122' 
DISL,ioos:station:DISL:MHPA:1,2009-08-02T17:30:00Z,30.6671,-87.9365,8.5,3.83,263.5,-9999.0,'1111122,1111122,1111122' 
DISL,ioos:station:DISL:MHPA:1,2009-08-02T18:00:00Z,30.6671,-87.9365,8.5,3.8,250.0,-9999.0,'1111122,1111122,1111122' 
DISL,ioos:station:DISL:MHPA:1,2009-08-02T18:30:00Z,30.6671,-87.9365,8.5,3.18,232.0,-9999.0,'1111122,1111122,1111122' 
DISL,ioos:station:DISL:MHPA:1,2009-08-02T19:00:00Z,30.6671,-87.9365,8.5,2.8,220.5,-9999.0,'1111122,1111122,1111122' 
DISL,ioos:station:DISL:MHPA:1,2009-08-02T19:30:00Z,30.6671,-87.9365,8.5,3.5,181.4,-9999.0,'1111122,1111122,1111122' 
DISL,ioos:station:DISL:MHPA:1,2009-08-02T20:00:00Z,30.6671,-87.9365,8.5,7.91,255.4,-9999.0,'1111122,1111122,1111122' 
DISL,ioos:station:DISL:MHPA:1,2009-08-02T20:30:00Z,30.6671,-87.9365,8.5,2.62,203.6,-9999.0,'1111122,1111122,1111122' 
DISL,ioos:station:DISL:MHPA:1,2009-08-02T21:00:00Z,30.6671,-87.9365,8.5,1.97,253.6,-9999.0,'1111122,1111122,1111122' 
DISL,ioos:station:DISL:MHPA:1,2009-08-02T21:30:00Z,30.6671,-87.9365,8.5,2.72,202.7,-9999.0,'1111122,1111122,1111122' 
DISL,ioos:station:DISL:MHPA:1,2009-08-02T22:00:00Z,30.6671,-87.9365,8.5,1.01,237.3,-9999.0,'1111122,1111122,1111122' 
DISL,ioos:station:DISL:MHPA:1,2009-08-02T22:30:00Z,30.6671,-87.9365,8.5,1.31,224.1,-9999.0,'1111122,1111122,1111122' 
DISL,ioos:station:DISL:MHPA:1,2009-08-02T23:00:00Z,30.6671,-87.9365,8.5,1.6,187.3,-9999.0,'1111122,1111122,1111122' 
DISL,ioos:station:DISL:MHPA:1,2009-08-02T23:30:00Z,30.6671,-87.9365,8.5,3.41,250.3,-9999.0,'1111122,1111122,1111122' 
DISL,ioos:station:DISL:MHPA:1,2009-08-03T00:00:00Z,30.6671,-87.9365,8.5,3.98,241.5,-9999.0,'1111122,1111122,1111122' 
DISL,ioos:station:DISL:MHPA:1,2009-08-03T00:30:00Z,30.6671,-87.9365,8.5,4.13,240.7,-9999.0,'1111122,1111122,1111122' 
DISL,ioos:station:DISL:MHPA:1,2009-08-03T01:00:00Z,30.6671,-87.9365,8.5,4.11,261.0,-9999.0,'1111122,1111122,1111122' 
DISL,ioos:station:DISL:MHPA:1,2009-08-03T01:30:00Z,30.6671,-87.9365,8.5,3.55,261.9,-9999.0,'1111122,1111122,1111122' 
DISL,ioos:station:DISL:MHPA:1,2009-08-03T02:00:00Z,30.6671,-87.9365,8.5,2.36,268.4,-9999.0,'1111122,1111122,1111122' 
DISL,ioos:station:DISL:MHPA:1,2009-08-03T02:30:00Z,30.6671,-87.9365,8.5,1.75,270.0,-9999.0,'1111122,1111122,1111122' 
DISL,ioos:station:DISL:MHPA:1,2009-08-03T03:00:00Z,30.6671,-87.9365,8.5,2.32,254.8,-9999.0,'1111122,1111122,1111122' 
DISL,ioos:station:DISL:MHPA:1,2009-08-03T03:30:00Z,30.6671,-87.9365,8.5,1.69,233.7,-9999.0,'1111122,1111122,1111122' 
DISL,ioos:station:DISL:MHPA:1,2009-08-03T04:00:00Z,30.6671,-87.9365,8.5,1.94,246.7,-9999.0,'1111122,1111122,1111122' 
DISL,ioos:station:DISL:MHPA:1,2009-08-03T04:30:00Z,30.6671,-87.9365,8.5,2.81,245.8,-9999.0,'1111122,1111122,1111122' 
DISL,ioos:station:DISL:MHPA:1,2009-08-03T05:00:00Z,30.6671,-87.9365,8.5,3.26,248.2,-9999.0,'1111122,1111122,1111122' 
DISL,ioos:station:DISL:MHPA:1,2009-08-03T05:30:00Z,30.6671,-87.9365,8.5,3.58,247.7,-9999.0,'1111122,1111122,1111122' 
DISL,ioos:station:DISL:MHPA:1,2009-08-03T06:00:00Z,30.6671,-87.9365,8.5,4.39,249.3,-9999.0,'1111122,1111122,1111122' 
DISL,ioos:station:DISL:MHPA:1,2009-08-03T06:30:00Z,30.6671,-87.9365,8.5,3.85,250.0,-9999.0,'1111122,1111122,1111122' 
DISL,ioos:station:DISL:MHPA:1,2009-08-03T07:00:00Z,30.6671,-87.9365,8.5,2.87,262.0,-9999.0,'1111122,1111122,1111122' 
DISL,ioos:station:DISL:MHPA:1,2009-08-03T07:30:00Z,30.6671,-87.9365,8.5,2.67,277.3,-9999.0,'1111122,1111122,1111122' 
DISL,ioos:station:DISL:MHPA:1,2009-08-03T08:00:00Z,30.6671,-87.9365,8.5,2.33,287.2,-9999.0,'1111122,1111122,1111122' 
DISL,ioos:station:DISL:MHPA:1,2009-08-03T08:30:00Z,30.6671,-87.9365,8.5,0.74,313.0,-9999.0,'1111122,1111122,1111122' 
DISL,ioos:station:DISL:MHPA:1,2009-08-03T09:00:00Z,30.6671,-87.9365,8.5,2.16,308.9,-9999.0,'1111122,1111122,1111122' 
DISL,ioos:station:DISL:MHPA:1,2009-08-03T09:30:00Z,30.6671,-87.9365,8.5,1.91,328.4,-9999.0,'1111122,1111122,1111122' 
DISL,ioos:station:DISL:MHPA:1,2009-08-03T10:00:00Z,30.6671,-87.9365,8.5,1.3,335.5,-9999.0,'1111122,1111122,1111122' 
DISL,ioos:station:DISL:MHPA:1,2009-08-03T10:30:00Z,30.6671,-87.9365,8.5,1.58,329.0,-9999.0,'1111122,1111122,1111122' 
DISL,ioos:station:DISL:MHPA:1,2009-08-03T11:00:00Z,30.6671,-87.9365,8.5,1.17,352.0,-9999.0,'1111122,1111122,1111122' 
DISL,ioos:station:DISL:MHPA:1,2009-08-03T11:30:00Z,30.6671,-87.9365,8.5,0.99,14.46,-9999.0,'1111122,1111122,1111122' 
DISL,ioos:station:DISL:MHPA:1,2009-08-03T12:00:00Z,30.6671,-87.9365,8.5,1.42,349.6,-9999.0,'1111122,1111122,1111122' 
DISL,ioos:station:DISL:MHPA:1,2009-08-03T12:30:00Z,30.6671,-87.9365,8.5,0.96,339.0,-9999.0,'1111122,1111122,1111122' 
DISL,ioos:station:DISL:MHPA:1,2009-08-03T13:00:00Z,30.6671,-87.9365,8.5,1.64,316.7,-9999.0,'1111122,1111122,1111122' 
DISL,ioos:station:DISL:MHPA:1,2009-08-03T13:30:00Z,30.6671,-87.9365,8.5,2.21,332.1,-9999.0,'1111122,1111122,1111122' 
DISL,ioos:station:DISL:MHPA:1,2009-08-03T14:00:00Z,30.6671,-87.9365,8.5,1.8,355.0,-9999.0,'1111122,1111122,1111122' 
DISL,ioos:station:DISL:MHPA:1,2009-08-03T14:30:00Z,30.6671,-87.9365,8.5,1.35,351.7,-9999.0,'1111122,1111122,1111122' 
DISL,ioos:station:DISL:MHPA:1,2009-08-03T15:00:00Z,30.6671,-87.9365,8.5,1.59,0.619,-9999.0,'1111122,1111122,1111122' 
DISL,ioos:station:DISL:MHPA:1,2009-08-03T15:30:00Z,30.6671,-87.9365,8.5,1.17,350.4,-9999.0,'1111122,1111122,1111122' 
DISL,ioos:station:DISL:MHPA:1,2009-08-03T16:00:00Z,30.6671,-87.9365,8.5,1.65,168.1,-9999.0,'1111122,1111122,1111122' 
DISL,ioos:station:DISL:MHPA:1,2009-08-03T16:30:00Z,30.6671,-87.9365,8.5,1.78,187.4,-9999.0,'1111122,1111122,1111122' 
DISL,ioos:station:DISL:MHPA:1,2009-08-03T17:00:00Z,30.6671,-87.9365,8.5,2.86,187.4,-9999.0,'1111122,1111122,1111122' 
DISL,ioos:station:DISL:MHPA:1,2009-08-03T17:30:00Z,30.6671,-87.9365,8.5,2.89,201.8,-9999.0,'1111122,1111122,1111122' 
DISL,ioos:station:DISL:MHPA:1,2009-08-03T18:00:00Z,30.6671,-87.9365,8.5,3.37,189.9,-9999.0,'1111122,1111122,1111122' 
DISL,ioos:station:DISL:MHPA:1,2009-08-03T18:30:00Z,30.6671,-87.9365,8.5,3.47,204.7,-9999.0,'1111122,1111122,1111122' 
DISL,ioos:station:DISL:MHPA:1,2009-08-03T19:00:00Z,30.6671,-87.9365,8.5,3.26,192.4,-9999.0,'1111122,1111122,1111122' 
DISL,ioos:station:DISL:MHPA:1,2009-08-03T19:30:00Z,30.6671,-87.9365,8.5,6.73,341.6,-9999.0,'1111122,1111122,1111122' 
DISL,ioos:station:DISL:MHPA:1,2009-08-03T20:00:00Z,30.6671,-87.9365,8.5,3.88,296.1,-9999.0,'1111122,1111122,1111122' 
DISL,ioos:station:DISL:MHPA:1,2009-08-03T20:30:00Z,30.6671,-87.9365,8.5,10.52,253.2,-9999.0,'1111122,1111122,1111122' 
DISL,ioos:station:DISL:MHPA:1,2009-08-03T21:00:00Z,30.6671,-87.9365,8.5,4.05,249.0,-9999.0,'1111122,1111122,1111122' 
DISL,ioos:station:DISL:MHPA:1,2009-08-03T21:30:00Z,30.6671,-87.9365,8.5,1.4,288.8,-9999.0,'1111122,1111122,1111122' 
DISL,ioos:station:DISL:MHPA:1,2009-08-03T22:00:00Z,30.6671,-87.9365,8.5,1.51,207.7,-9999.0,'1111122,1111122,1111122' 
DISL,ioos:station:DISL:MHPA:1,2009-08-03T22:30:00Z,30.6671,-87.9365,8.5,2.22,227.7,-9999.0,'1111122,1111122,1111122' 
DISL,ioos:station:DISL:MHPA:1,2009-08-03T23:00:00Z,30.6671,-87.9365,8.5,2.73,236.5,-9999.0,'1111122,1111122,1111122' 
DISL,ioos:station:DISL:MHPA:1,2009-08-03T23:30:00Z,30.6671,-87.9365,8.5,2.58,215.8,-9999.0,'1111122,1111122,1111122' 
DISL,ioos:station:DISL:MHPA:1,2009-08-04T00:00:00Z,30.6671,-87.9365,8.5,3.35,199.5,-9999.0,'1111122,1111122,1111122' 
DISL,ioos:station:DISL:MHPA:1,2009-08-04T00:30:00Z,30.6671,-87.9365,8.5,3.89,210.8,-9999.0,'1111122,1111122,1111122' 
DISL,ioos:station:DISL:MHPA:1,2009-08-04T01:00:00Z,30.6671,-87.9365,8.5,3.85,223.5,-9999.0,'1111122,1111122,1111122' 
DISL,ioos:station:DISL:MHPA:1,2009-08-04T01:30:00Z,30.6671,-87.9365,8.5,4.09,236.7,-9999.0,'1111122,1111122,1111122' 
DISL,ioos:station:DISL:MHPA:1,2009-08-04T02:00:00Z,30.6671,-87.9365,8.5,3.15,263.8,-9999.0,'1111122,1111122,1111122' 
DISL,ioos:station:DISL:MHPA:1,2009-08-04T02:30:00Z,30.6671,-87.9365,8.5,0.2,339.8,-9999.0,'1111122,1111122,1111122' 
DISL,ioos:station:DISL:MHPA:1,2009-08-04T03:00:00Z,30.6671,-87.9365,8.5,1.68,263.7,-9999.0,'1111122,1111122,1111122' 
DISL,ioos:station:DISL:MHPA:1,2009-08-04T03:30:00Z,30.6671,-87.9365,8.5,1.79,265.4,-9999.0,'1111122,1111122,1111122' 
DISL,ioos:station:DISL:MHPA:1,2009-08-04T04:00:00Z,30.6671,-87.9365,8.5,0.67,299.3,-9999.0,'1111122,1111122,1111122' 
DISL,ioos:station:DISL:MHPA:1,2009-08-04T04:30:00Z,30.6671,-87.9365,8.5,1.45,339.5,-9999.0,'1111122,1111122,1111122' 
DISL,ioos:station:DISL:MHPA:1,2009-08-04T05:00:00Z,30.6671,-87.9365,8.5,1.12,313.5,-9999.0,'1111122,1111122,1111122' 
DISL,ioos:station:DISL:MHPA:1,2009-08-04T05:30:00Z,30.6671,-87.9365,8.5,0.23,338.6,-9999.0,'1111122,1111122,1111122' 
DISL,ioos:station:DISL:MHPA:1,2009-08-04T06:00:00Z,30.6671,-87.9365,8.5,0.82,28.83,-9999.0,'1111122,1111122,1111122' 
DISL,ioos:station:DISL:MHPA:1,2009-08-04T06:30:00Z,30.6671,-87.9365,8.5,0.63,28.3,-9999.0,'1111122,1111122,1111122' 
DISL,ioos:station:DISL:MHPA:1,2009-08-04T07:00:00Z,30.6671,-87.9365,8.5,0.33,20.45,-9999.0,'1111122,1111122,1111122' 
DISL,ioos:station:DISL:MHPA:1,2009-08-04T07:30:00Z,30.6671,-87.9365,8.5,0.85,20.56,-9999.0,'1111122,1111122,1111122' 
DISL,ioos:station:DISL:MHPA:1,2009-08-04T08:00:00Z,30.6671,-87.9365,8.5,1.01,9.37,-9999.0,'1111122,1111122,1111122' 
DISL,ioos:station:DISL:MHPA:1,2009-08-04T08:30:00Z,30.6671,-87.9365,8.5,0.02,43.87,-9999.0,'1111122,1111122,1111122' 
DISL,ioos:station:DISL:MHPA:1,2009-08-04T09:00:00Z,30.6671,-87.9365,8.5,0.95,110.4,-9999.0,'1111122,1111122,1111122' 
DISL,ioos:station:DISL:MHPA:1,2009-08-04T09:30:00Z,30.6671,-87.9365,8.5,0.4,74.8,-9999.0,'1111122,1111122,1111122' 
DISL,ioos:station:DISL:MHPA:1,2009-08-04T10:00:00Z,30.6671,-87.9365,8.5,0.73,112.8,-9999.0,'1111122,1111122,1111122' 
DISL,ioos:station:DISL:MHPA:1,2009-08-04T10:30:00Z,30.6671,-87.9365,8.5,0.6,153.3,-9999.0,'1111122,1111122,1111122' 
DISL,ioos:station:DISL:MHPA:1,2009-08-04T11:00:00Z,30.6671,-87.9365,8.5,0.49,96.1,-9999.0,'1111122,1111122,1111122' 
DISL,ioos:station:DISL:MHPA:1,2009-08-04T11:30:00Z,30.6671,-87.9365,8.5,0.51,83.5,-9999.0,'1111122,1111122,1111122' 
DISL,ioos:station:DISL:MHPA:1,2009-08-04T12:00:00Z,30.6671,-87.9365,8.5,0.67,357.1,-9999.0,'1111122,1111122,1111122' 
DISL,ioos:station:DISL:MHPA:1,2009-08-04T12:30:00Z,30.6671,-87.9365,8.5,1.19,263.4,-9999.0,'1111122,1111122,1111122' 
DISL,ioos:station:DISL:MHPA:1,2009-08-04T13:00:00Z,30.6671,-87.9365,8.5,1.51,231.8,-9999.0,'1111122,1111122,1111122' 
DISL,ioos:station:DISL:MHPA:1,2009-08-04T13:30:00Z,30.6671,-87.9365,8.5,1.41,223.7,-9999.0,'1111122,1111122,1111122' 
DISL,ioos:station:DISL:MHPA:1,2009-08-04T14:00:00Z,30.6671,-87.9365,8.5,1.31,215.0,-9999.0,'1111122,1111122,1111122' 
DISL,ioos:station:DISL:MHPA:1,2009-08-04T14:30:00Z,30.6671,-87.9365,8.5,1.48,189.3,-9999.0,'1111122,1111122,1111122' 
DISL,ioos:station:DISL:MHPA:1,2009-08-04T15:00:00Z,30.6671,-87.9365,8.5,1.15,211.3,-9999.0,'1111122,1111122,1111122' 
DISL,ioos:station:DISL:MHPA:1,2009-08-04T15:30:00Z,30.6671,-87.9365,8.5,1.48,197.6,-9999.0,'1111122,1111122,1111122' 
DISL,ioos:station:DISL:MHPA:1,2009-08-04T16:00:00Z,30.6671,-87.9365,8.5,1.89,203.8,-9999.0,'1111122,1111122,1111122' 
DISL,ioos:station:DISL:MHPA:1,2009-08-04T16:30:00Z,30.6671,-87.9365,8.5,2.62,198.6,-9999.0,'1111122,1111122,1111122' 
DISL,ioos:station:DISL:MHPA:1,2009-08-04T17:00:00Z,30.6671,-87.9365,8.5,2.14,188.2,-9999.0,'1111122,1111122,1111122' 
DISL,ioos:station:DISL:MHPA:1,2009-08-04T17:30:00Z,30.6671,-87.9365,8.5,2.96,189.6,-9999.0,'1111122,1111122,1111122' 
DISL,ioos:station:DISL:MHPA:1,2009-08-04T18:00:00Z,30.6671,-87.9365,8.5,2.87,191.5,-9999.0,'1111122,1111122,1111122' 
DISL,ioos:station:DISL:MHPA:1,2009-08-04T18:30:00Z,30.6671,-87.9365,8.5,3.62,189.3,-9999.0,'1111122,1111122,1111122' 
DISL,ioos:station:DISL:MHPA:1,2009-08-04T19:00:00Z,30.6671,-87.9365,8.5,3.36,196.0,-9999.0,'1111122,1111122,1111122' 
DISL,ioos:station:DISL:MHPA:1,2009-08-04T19:30:00Z,30.6671,-87.9365,8.5,4.41,203.7,-9999.0,'1111122,1111122,1111122' 
DISL,ioos:station:DISL:MHPA:1,2009-08-04T20:00:00Z,30.6671,-87.9365,8.5,4.04,211.1,-9999.0,'1111122,1111122,1111122' 
DISL,ioos:station:DISL:MHPA:1,2009-08-04T20:30:00Z,30.6671,-87.9365,8.5,3.51,319.1,-9999.0,'1111122,1111122,1111122' 
DISL,ioos:station:DISL:MHPA:1,2009-08-04T21:00:00Z,30.6671,-87.9365,8.5,6.79,238.7,-9999.0,'1111122,1111122,1111122' 
DISL,ioos:station:DISL:MHPA:1,2009-08-04T21:30:00Z,30.6671,-87.9365,8.5,3.37,215.8,-9999.0,'1111122,1111122,1111122' 
DISL,ioos:station:DISL:MHPA:1,2009-08-04T22:00:00Z,30.6671,-87.9365,8.5,7.01,238.3,-9999.0,'1111122,1111122,1111122' 
DISL,ioos:station:DISL:MHPA:1,2009-08-04T22:30:00Z,30.6671,-87.9365,8.5,2.89,180.9,-9999.0,'1111122,1111122,1111122' 
DISL,ioos:station:DISL:MHPA:1,2009-08-04T23:00:00Z,30.6671,-87.9365,8.5,3.8,144.3,-9999.0,'1111122,1111122,1111122' 
DISL,ioos:station:DISL:MHPA:1,2009-08-04T23:30:00Z,30.6671,-87.9365,8.5,3.34,150.3,-9999.0,'1111122,1111122,1111122' 
DISL,ioos:station:DISL:MHPA:1,2009-08-05T00:00:00Z,30.6671,-87.9365,8.5,3.49,180.9,-9999.0,'1111122,1111122,1111122' 
DISL,ioos:station:DISL:MHPA:1,2009-08-05T00:30:00Z,30.6671,-87.9365,8.5,2.73,204.0,-9999.0,'1111122,1111122,1111122' 
DISL,ioos:station:DISL:MHPA:1,2009-08-05T01:00:00Z,30.6671,-87.9365,8.5,3.11,241.6,-9999.0,'1111122,1111122,1111122' 
DISL,ioos:station:DISL:MHPA:1,2009-08-05T01:30:00Z,30.6671,-87.9365,8.5,1.52,31.49,-9999.0,'1111122,1111122,1111122' 
DISL,ioos:station:DISL:MHPA:1,2009-08-05T02:00:00Z,30.6671,-87.9365,8.5,1.52,329.0,-9999.0,'1111122,1111122,1111122' 
DISL,ioos:station:DISL:MHPA:1,2009-08-05T02:30:00Z,30.6671,-87.9365,8.5,1.16,258.3,-9999.0,'1111122,1111122,1111122' 
DISL,ioos:station:DISL:MHPA:1,2009-08-05T03:00:00Z,30.6671,-87.9365,8.5,2.19,236.5,-9999.0,'1111122,1111122,1111122' 
DISL,ioos:station:DISL:MHPA:1,2009-08-05T03:30:00Z,30.6671,-87.9365,8.5,2.38,203.8,-9999.0,'1111122,1111122,1111122' 
DISL,ioos:station:DISL:MHPA:1,2009-08-05T04:00:00Z,30.6671,-87.9365,8.5,3.18,218.7,-9999.0,'1111122,1111122,1111122' 
DISL,ioos:station:DISL:MHPA:1,2009-08-05T04:30:00Z,30.6671,-87.9365,8.5,3.11,230.6,-9999.0,'1111122,1111122,1111122' 